Location: Stockholm
(59.3333°N, 18.0500°E)
Time: 14:50:03
(UTC+02:00)

ISS - Pass Details

Date: 08 May 2019
Orbit: 407 x 410 km, 51.6° (Epoch: 20 May)

Event Time Altitude Azimuth Distance (km) Brightness Sun altitude
Exits shadow 03:25:24 - 203° (SSW) 1,578 -1.5 -7.0°
Reaches altitude 10° 03:25:47 10° 198° (SSW) 1,476 -1.6 -6.9°
Maximum altitude 03:27:50 15° 159° (SSE) 1,191 -1.7 -6.8°
Drops below altitude 10° 03:29:52 10° 121° (ESE) 1,480 -0.9 -6.6°
Sets 03:32:33 0° 98° (E) 2,345 0.5 -6.4°
